Overview Statistics Trail Chart Weather Telemetry Raw packets
 

This is the latest recevied weather packets stored in our database for station/object KC2GYU. If no packets are shown the sender has not sent any weather packets the latest 10 day(s).

<< 58 59 60 61 62 63 64 >>
Time Temp. Humidity Pressure Rain* Wind** Luminosity Snow
1777675933 12.22° C 76% 1012.6 hPa 0 mm - 39 W/m² -
1777675629 12.22° C 75% 1012.7 hPa 0 mm - 42 W/m² -
1777675327 12.22° C 74% 1012.4 hPa 0 mm - 62 W/m² -
1777675023 12.22° C 74% 1012.7 hPa 0 mm - 68 W/m² -
1777674720 12.78° C 74% 1012.7 hPa 0 mm - 47 W/m² -
1777674416 12.78° C 75% 1012.7 hPa 0 mm - 45 W/m² -
1777674113 12.78° C 74% 1012.8 hPa 0 mm - 43 W/m² -
1777673810 13.33° C 73% 1012.8 hPa 0 mm - 44 W/m² -
1777673507 13.89° C 70% 1012.7 hPa 0 mm - 70 W/m² -
1777673205 13.89° C 65% 1013.2 hPa 0 mm - 174 W/m² -
1777672902 14.44° C 67% 1012.8 hPa 0 mm - 217 W/m² -
1777672599 15° C 64% 1012.8 hPa 0 mm - 229 W/m² -
1777672293 15° C 61% 1012.9 hPa 0 mm - 245 W/m² -
1777671989 15° C 58% 1012.9 hPa 0 mm - 261 W/m² -
1777671684 15° C 61% 1012.9 hPa 0 mm - 278 W/m² -
1777671382 15° C 62% 1012.9 hPa 0 mm - 294 W/m² -
1777671078 15.56° C 65% 1012.9 hPa 0 mm - 308 W/m² -
1777670775 15.56° C 64% 1012.9 hPa 0 mm - 327 W/m² -
1777670471 15.56° C 63% 1012.8 hPa 0 mm - 347 W/m² -
1777670168 16.11° C 64% 1012.9 hPa 0 mm - 340 W/m² -
1777669866 16.67° C 60% 1013 hPa 0 mm - 354 W/m² -
1777669562 16.11° C 65% 1012.8 hPa 0 mm - 383 W/m² -
1777669259 16.67° C 60% 1012.6 hPa 0 mm - 440 W/m² -
1777668955 16.67° C 62% 1012.9 hPa 0 mm - 439 W/m² -
1777668653 16.11° C 64% 1012.8 hPa 0 mm - 482 W/m² -

* Rain latest hour (hover to see other rain measurements)
** Current wind speed in m/s (hover to see current wind gust speed)